Content
SEND FEEDBACK

Daily
Averages
Monthly
Summary
United States of America

POTTS JUNCTION, GUAM


Home > North America > United States > Guam
Elevation: 360 feet     Latitude: 13 33N     Longitude: 144 50E

WEATHER
 
SELECT A DAY
Number of Records: 215,739;   Date Range: 1/1/95 - 12/25/14
 
SHARE

PRINT THIS DATA

[ ← Previous Day ]
WEATHER ALMANAC - APRIL 30, 2013
[ Next Day → ]
[ °C ]   °F
Weather ElementAverageHighLow
Temperature85.2 °F89.6 °F (10:40 am)80.1 °F (2:54 am)
Dewpoint74.7 °F75.9 °F (8:54 am)73.4 °F (10:01 am)
Humidity70.8 %82 % (1:54 am)59 % (10:40 am)
Barometer29.87 in29.91 in (9:42 am)29.81 in (3:54 pm)
Wind Speed10.9 mph17.3 mph (10:01 am)
Wind Gust24.2 mph (10:47 am)
Weather ElementAverage
Visibility10 mi
Wind DirectionE (87.6 °)

Weather ElementTotal
Precipitation0.01 in
Cooling Degree Days19.9 (Base 65)
Growing Degree Days34.9 (Base 50)
Averaged from 34 records on April 30, 2013
WEATHER CONDITIONS BREAKOUT
WIND DIRECTION BREAKOUT
WEATHER BY HOUR - APRIL 30, 2013
[ °C ]   °F
Local TimeTemperatureDewpointHumidityBarometerVisibilityWind DirectionWind SpeedGust SpeedPrecipitationEventsConditions
1:54 AM81.0 °F75.0 °F82 %29.90 in10.0 miENE (70°)5.8 mphClear
2:54 AM80.1 °F73.9 °F81 %29.88 in10.0 miENE (70°)5.8 mphClear
3:54 AM81.0 °F75.0 °F82 %29.87 in10.0 miENE (70°)5.8 mphClear
4:54 AM81.0 °F75.0 °F82 %29.87 in10.0 miENE (60°)5.8 mphClear
5:54 AM81.0 °F75.0 °F82 %29.87 in10.0 miENE (70°)5.8 mphClear
6:54 AM82.9 °F75.0 °F77 %29.88 in10.0 miENE (70°)8.1 mphPartly Cloudy
7:54 AM84.9 °F73.9 °F69 %29.89 in10.0 miENE (70°)15.0 mphScattered Clouds
8:54 AM84.9 °F75.9 °F74 %29.90 in10.0 miEast (90°)13.8 mph0.00 inScattered Clouds
9:42 AM87.8 °F75.2 °F66 %29.91 in10.0 miEast (90°)11.5 mph19.6 mphMostly Cloudy
9:54 AM88.0 °F75.0 °F65 %29.88 in10.0 miEast (80°)16.1 mph20.7 mphMostly Cloudy
10:01 AM87.8 °F73.4 °F62 %29.91 in10.0 miENE (70°)17.3 mph21.9 mphMostly Cloudy
10:40 AM89.6 °F73.4 °F59 %29.91 in10.0 miEast (80°)16.1 mph21.9 mphMostly Cloudy
10:47 AM87.8 °F73.4 °F62 %29.91 in10.0 miESE (110°)13.8 mph24.2 mphScattered Clouds
10:54 AM88.0 °F73.9 °F63 %29.88 in10.0 miENE (70°)17.3 mph21.9 mphMostly Cloudy
11:06 AM87.8 °F73.4 °F62 %29.90 in10.0 miESE (120°)11.5 mphMostly Cloudy
11:18 AM87.8 °F73.4 °F62 %29.90 in10.0 miESE (110°)13.8 mph23.0 mphMostly Cloudy
11:50 AM87.8 °F75.2 °F66 %29.89 in10.0 miESE (120°)11.5 mph24.2 mphMostly Cloudy
11:54 AM89.1 °F75.0 °F63 %29.87 in10.0 miEast (90°)16.1 mph21.9 mphScattered Clouds
12:54 PM88.0 °F73.9 °F63 %29.86 in10.0 miESE (120°)11.5 mph19.6 mphScattered Clouds
1:54 PM86.0 °F75.9 °F72 %29.83 in10.0 miESE (110°)9.2 mph0.01 inPartly Cloudy
2:09 PM84.2 °F75.2 °F74 %29.85 in10.0 miEast (80°)15.0 mph21.9 mphMostly Cloudy
2:18 PM84.2 °F75.2 °F74 %29.85 in9.0 miEast (90°)9.2 mph0.00 inRainLight Rain
2:54 PM86.0 °F75.0 °F70 %29.83 in10.0 miEast (90°)9.2 mph19.6 mph0.00 inPartly Cloudy
3:09 PM86.0 °F75.2 °F70 %29.85 in10.0 miEast (80°)13.8 mphMostly Cloudy
3:41 PM87.8 °F73.4 °F62 %29.84 in10.0 miEast (80°)10.4 mph17.3 mph0.00 inScattered Clouds
3:54 PM86.0 °F73.9 °F67 %29.81 in10.0 miEast (90°)12.7 mph0.00 inScattered Clouds
4:54 PM86.0 °F73.9 °F67 %29.82 in10.0 miEast (90°)9.2 mphPartly Cloudy
5:54 PM84.9 °F75.0 °F72 %29.83 in10.0 miEast (90°)9.2 mphPartly Cloudy
6:54 PM84.0 °F75.0 °F74 %29.85 in10.0 miEast (80°)6.9 mphClear
7:54 PM84.0 °F75.0 °F74 %29.86 in10.0 miEast (80°)8.1 mphPartly Cloudy
8:54 PM84.0 °F75.0 °F74 %29.88 in10.0 miEast (100°)10.4 mph0.00 inPartly Cloudy
9:54 PM82.9 °F75.9 °F79 %29.88 in10.0 miESE (110°)8.1 mphPartly Cloudy
10:54 PM82.9 °F75.0 °F77 %29.88 in10.0 miEast (90°)9.2 mphPartly Cloudy
11:54 PM82.9 °F75.9 °F79 %29.87 in10.0 miEast (90°)6.9 mphScattered Clouds
Hourly data recorded from PGUM, located miles away from Potts Junction, Guam







STORIES FROM OUR PARTNERS